Location: Amberg
(48.0613°N, 10.6820°E)
Time: 01:59:40
(UTC+00:00)

Spot 4 Rocket - Pass Details

Date: 18 November 2025
Orbit: 769 x 773 km, 98.8° (Epoch: 04 December)

Event Time Altitude Azimuth Distance (km) Brightness Sun altitude
Rises 16:50:01 0° 141° (SE) 3,230 7.0 -12.3°
Reaches altitude 10° 16:52:25 10° 134° (SE) 2,307 6.2 -12.7°
Maximum altitude 16:57:09 40° 66° (ENE) 1,120 4.4 -13.4°
Drops below altitude 10° 17:01:54 10° 358° (N) 2,323 6.4 -14.2°
Sets 17:04:19 0° 351° (N) 3,254 7.2 -14.6°
